Time,TemperatureF,DewpointF,PressureIn,WindDirection,WindDirectionDegrees,WindSpeedMPH,WindSpeedGustMPH,Humidity,HourlyPrecipIn,Conditions,Clouds,dailyrainin,SoftwareType,DateUTC
2014-08-27 00:10:00,70.7,58.0,30.04,WSW,245,8.0,13.0,65,0.00,,,0.00,weatherlink.com 1.10,2014-08-27 04:10:00,
2014-08-27 00:25:00,70.8,59.0,30.03,SW,226,10.0,16.0,67,0.00,,,0.00,weatherlink.com 1.10,2014-08-27 04:25:00,
2014-08-27 00:40:00,70.9,60.0,30.03,SW,225,14.0,14.0,69,0.00,,,0.00,weatherlink.com 1.10,2014-08-27 04:40:00,
2014-08-27 00:55:00,70.8,61.0,30.02,SW,221,10.0,14.0,70,0.00,,,0.00,weatherlink.com 1.10,2014-08-27 04:55:00,
2014-08-27 01:10:00,70.3,60.0,30.02,SW,228,10.0,17.0,70,0.00,,,0.00,weatherlink.com 1.10,2014-08-27 05:10:00,
2014-08-27 01:25:00,69.5,60.0,30.03,West,279,1.0,14.0,72,0.00,,,0.00,weatherlink.com 1.10,2014-08-27 05:25:00,
2014-08-27 01:40:00,69.1,60.0,30.02,WSW,245,7.0,14.0,73,0.00,,,0.00,weatherlink.com 1.10,2014-08-27 05:40:00,
2014-08-27 01:55:00,69.5,61.0,30.02,SW,229,5.0,18.0,74,0.00,,,0.00,weatherlink.com 1.10,2014-08-27 05:55:00,
2014-08-27 02:11:00,69.4,61.0,30.02,SW,224,10.0,15.0,74,0.00,,,0.00,weatherlink.com 1.10,2014-08-27 06:11:00,
2014-08-27 02:26:00,68.8,61.0,30.02,WSW,239,7.0,12.0,76,0.00,,,0.00,weatherlink.com 1.10,2014-08-27 06:26:00,
2014-08-27 02:41:00,68.9,61.0,30.02,West,262,7.0,14.0,77,0.00,,,0.00,weatherlink.com 1.10,2014-08-27 06:41:00,
2014-08-27 02:56:00,69.3,62.0,30.02,SW,236,8.0,16.0,78,0.00,,,0.00,weatherlink.com 1.10,2014-08-27 06:56:00,
2014-08-27 03:11:00,68.5,63.0,30.02,WSW,245,8.0,14.0,82,0.00,,,0.00,weatherlink.com 1.10,2014-08-27 07:11:00,
2014-08-27 03:26:00,68.2,63.0,30.02,SW,224,7.0,13.0,83,0.00,,,0.00,weatherlink.com 1.10,2014-08-27 07:26:00,
2014-08-27 03:41:00,67.8,63.0,30.02,WSW,252,8.0,10.0,84,0.00,,,0.00,weatherlink.com 1.10,2014-08-27 07:41:00,
2014-08-27 03:56:00,67.8,63.0,30.02,WSW,246,11.0,13.0,84,0.00,,,0.00,weatherlink.com 1.10,2014-08-27 07:56:00,
2014-08-27 04:11:00,67.5,63.0,30.02,WSW,249,8.0,9.0,85,0.00,,,0.00,weatherlink.com 1.10,2014-08-27 08:11:00,
2014-08-27 04:26:00,67.2,63.0,30.03,WSW,243,4.0,10.0,86,0.00,,,0.00,weatherlink.com 1.10,2014-08-27 08:26:00,
2014-08-27 04:41:00,67.1,63.0,30.03,SW,236,6.0,9.0,87,0.00,,,0.00,weatherlink.com 1.10,2014-08-27 08:41:00,
2014-08-27 04:56:00,67.0,64.0,30.03,SW,221,6.0,11.0,89,0.00,,,0.00,weatherlink.com 1.10,2014-08-27 08:56:00,
2014-08-27 05:11:00,67.1,64.0,30.03,West,276,3.0,7.0,90,0.00,,,0.00,weatherlink.com 1.10,2014-08-27 09:11:00,
2014-08-27 05:26:00,-999.0,-99.9,30.03,North,-999,-999.0,-999.0,-999,0.00,,,0.00,weatherlink.com 1.10,2014-08-27 09:26:00,
2014-08-27 05:41:00,-999.0,-99.9,30.03,North,-999,-999.0,-999.0,-999,0.00,,,0.00,weatherlink.com 1.10,2014-08-27 09:41:00,
2014-08-27 05:56:00,-999.0,-99.9,30.04,North,-999,-999.0,-999.0,-999,0.00,,,0.00,weatherlink.com 1.10,2014-08-27 09:56:00,
2014-08-27 06:11:00,-999.0,-99.9,30.04,North,-999,-999.0,-999.0,-999,0.00,,,0.00,weatherlink.com 1.10,2014-08-27 10:11:00,
2014-08-27 06:26:00,-999.0,-99.9,30.04,North,-999,-999.0,-999.0,-999,0.00,,,0.00,weatherlink.com 1.10,2014-08-27 10:26:00,
2014-08-27 06:41:00,-999.0,-99.9,30.04,North,-999,-999.0,-999.0,-999,0.00,,,0.00,weatherlink.com 1.10,2014-08-27 10:41:00,
2014-08-27 06:56:00,-999.0,-99.9,30.04,North,-999,-999.0,-999.0,-999,0.00,,,0.00,weatherlink.com 1.10,2014-08-27 10:56:00,
2014-08-27 07:11:00,-999.0,-99.9,30.04,North,-999,-999.0,-999.0,-999,0.00,,,0.00,weatherlink.com 1.10,2014-08-27 11:11:00,
2014-08-27 07:26:00,67.5,66.0,30.04,West,277,3.0,5.0,94,0.00,,,0.00,weatherlink.com 1.10,2014-08-27 11:26:00,
2014-08-27 07:41:00,68.1,66.0,30.04,West,263,4.0,6.0,93,0.00,,,0.00,weatherlink.com 1.10,2014-08-27 11:41:00,
2014-08-27 07:56:00,68.7,66.0,30.04,WSW,254,5.0,8.0,92,0.00,,,0.00,weatherlink.com 1.10,2014-08-27 11:56:00,
2014-08-27 08:12:00,69.0,66.0,30.03,SW,228,2.0,4.0,89,0.00,,,0.00,weatherlink.com 1.10,2014-08-27 12:12:00,
2014-08-27 08:27:00,70.2,66.0,30.04,SW,231,0.0,4.0,87,0.00,,,0.00,weatherlink.com 1.10,2014-08-27 12:27:00,
2014-08-27 08:42:00,70.2,66.0,30.03,NW,316,0.0,6.0,85,0.00,,,0.00,weatherlink.com 1.10,2014-08-27 12:42:00,
2014-08-27 08:57:00,69.6,65.0,30.03,WSW,239,5.0,7.0,86,0.00,,,0.00,weatherlink.com 1.10,2014-08-27 12:57:00,
2014-08-27 09:12:00,70.1,65.0,30.03,SSW,213,5.0,6.0,84,0.00,,,0.00,weatherlink.com 1.10,2014-08-27 13:12:00,
2014-08-27 09:27:00,70.5,65.0,30.03,West,264,6.0,6.0,83,0.00,,,0.00,weatherlink.com 1.10,2014-08-27 13:27:00,
2014-08-27 09:42:00,70.3,64.0,30.02,WSW,248,6.0,10.0,80,0.00,,,0.00,weatherlink.com 1.10,2014-08-27 13:42:00,
2014-08-27 09:57:00,71.4,65.0,30.02,SW,236,6.0,8.0,79,0.00,,,0.00,weatherlink.com 1.10,2014-08-27 13:57:00,
2014-08-27 10:12:00,72.0,65.0,30.02,WSW,250,0.0,10.0,79,0.00,,,0.00,weatherlink.com 1.10,2014-08-27 14:12:00,
2014-08-27 10:27:00,71.8,65.0,30.02,SW,222,2.0,11.0,78,0.00,,,0.00,weatherlink.com 1.10,2014-08-27 14:27:00,
2014-08-27 10:42:00,71.6,64.0,30.03,West,269,4.0,12.0,76,0.00,,,0.00,weatherlink.com 1.10,2014-08-27 14:42:00,
2014-08-27 10:57:00,72.3,65.0,30.03,SW,228,5.0,11.0,77,0.00,,,0.00,weatherlink.com 1.10,2014-08-27 14:57:00,
2014-08-27 11:12:00,72.7,64.0,30.02,SW,222,11.0,11.0,75,0.00,,,0.00,weatherlink.com 1.10,2014-08-27 15:12:00,